#timestamp,LO_Frequency,Hit,StdDev 
1596092875.8,286046974.1,P
1596092895.6,286046975.4,P
1596092915.5,286046973.1,P
1596092935.3,286046971.0,Y
1596092955.1,286046996.8,P
1596092975.9,286046995.3,N
1596092995.7,286046993.7,N
1596093015.5,286046995.7,N
1596093035.4,286046993.3,N
1596093055.2,286046993.4,N
1596093075.1,286046994.6,N
1596093076.0,286046994.6,N
1596093095.8,286046994.8,N
1596093115.6,286046992.4,N
1596093135.5,286046992.7,N
1596093155.3,286046992.3,N
1596093175.1,286046993.0,N
1596093195.9,286046992.7,N
1596093215.7,286046990.1,N
1596093235.6,286046990.4,N
1596093255.4,286046990.4,N
1596093275.2,286046991.4,N
1596093295.1,286046989.3,N
1596093296.0,286046989.3,N
1596093315.8,286046989.5,N
1596093335.7,286046990.0,N
1596093355.5,286046989.8,N
1596093375.3,286046988.1,N
1596093395.2,286046987.7,N
1596093415.0,286046989.6,N
1596093415.9,286046989.6,N
1596093435.8,286046987.4,Y
1596093455.6,286046995.7,P
1596093475.4,286046996.0,N
1596093495.3,286046993.9,N
1596093515.1,286046994.7,N
1596093516.0,286046994.7,Y
1596093535.8,286047000.7,P
1596093555.7,286046999.5,N
1596093575.5,286046997.4,N
1596093595.4,286046996.7,N
1596093615.2,286046999.0,N
1596093635.0,286047000.6,N
1596093635.9,286047000.6,N
1596093655.8,286046998.3,N
1596093675.6,286046994.9,N
1596093695.4,286046996.0,N
1596093715.3,286046993.6,N
1596093735.1,286046993.9,N
1596093755.9,286046994.6,N
1596093775.7,286046992.0,Y
1596093795.5,286046996.4,P
1596093815.4,286046994.2,P
1596093835.2,286046993.7,P
1596093855.0,286046991.9,Y
1596093855.9,286046991.9,P
1596093875.8,286046996.5,N
1596093895.6,286046997.5,N
1596093915.5,286046997.9,N
1596093935.3,286046995.4,N
1596093955.1,286046994.9,N
1596093975.9,286046995.4,N
1596093995.7,286046995.5,N
1596094015.5,286046996.2,N
1596094035.4,286046993.9,Y
1596094055.2,286046997.2,P
1596094075.1,286046996.5,P
1596094076.0,286046996.5,P
1596094095.8,286046999.0,N
1596094115.6,286046998.3,N
1596094135.5,286047000.7,N
1596094155.3,286047000.6,N
1596094175.2,286046998.2,N
1596094195.9,286046997.0,N
1596094215.7,286046996.1,N
1596094235.6,286046994.0,Y
1596094255.4,286046995.2,P
1596094275.2,286046995.5,P
1596094295.1,286046995.4,P
1596094296.0,286046995.4,Y
1596094315.8,286047000.2,P
1596094335.7,286047000.8,N
1596094355.5,286047000.8,N
1596094375.3,286046996.5,N
1596094395.2,286046997.6,N
1596094415.0,286046991.9,Y
1596094415.9,286046991.9,P
1596094435.8,286046990.7,N
1596094455.6,286046988.6,P
1596094475.4,286046993.2,N
1596094495.3,286046991.2,N
1596094515.1,286046989.9,Y
1596094535.8,286046993.8,P
1596094555.7,286046993.8,P
1596094575.5,286046996.4,P
1596094595.4,286046993.9,Y
1596094615.2,286047000.7,P
1596094635.0,286047001.1,N
1596094635.9,286047001.1,N
1596094655.8,286046999.2,N
1596094675.6,286046996.9,N
1596094695.5,286046996.0,N
1596094715.3,286046995.9,N
1596094735.1,286046993.4,N
1596094755.9,286046993.1,N
1596094775.7,286046990.4,Y
1596094795.5,286046994.1,P
1596094815.4,286046994.1,P
1596094835.2,286046994.5,P
1596094855.1,286046992.3,Y
1596094856.0,286046992.3,P
1596094875.8,286046996.5,N
1596094895.6,286046997.1,N
1596094915.5,286046999.3,N
1596094935.3,286046997.1,N
1596094955.1,286046997.4,N
1596094975.9,286046995.6,N
1596094995.7,286046994.9,N
1596095015.6,286046995.4,N
1596095035.4,286046995.0,N
1596095055.2,286046994.0,Y
1596095075.1,286046996.9,P
1596095076.0,286046996.9,P
1596095095.8,286046997.7,P
1596095115.7,286046997.6,Y
1596095135.5,286046999.1,P
1596095155.3,286046996.8,N
1596095175.2,286046995.2,P
1596095195.9,286046995.8,Y
1596095215.7,286046996.9,P
1596095235.6,286046997.5,P
1596095255.4,286046995.0,P
1596095275.3,286046995.9,Y
1596095295.1,286046999.4,P
1596095296.0,286046999.4,N
1596095315.8,286046999.4,N
1596095335.7,286046998.5,N
1596095355.5,286047000.6,N
1596095375.4,286046998.6,N
1596095395.2,286046998.7,N
1596095415.0,286046999.3,N
1596095415.9,286046999.3,N
1596095435.8,286046999.6,N
1596095455.6,286046998.8,N
1596095475.4,286046999.2,N
1596095495.3,286046997.0,Y
1596095515.1,286046994.9,P
1596095535.9,286046995.9,N
1596095555.7,286046993.7,P
1596095575.5,286046991.9,Y
1596095595